Weather History for KVWU - December, 2013

Change the Weather History Date:

Friday, December 20, 2013

  Actual Average (KBDE) Record (KBDE)
Temperature  
Mean Temperature -4 °F -  
Max Temperature 8 °F 14 °F 44 °F (1979)
Min Temperature -16 °F -3 °F -39 °F (1983)
Degree Days  
Heating Degree Days 69    
Moisture  
Dew Point -5 °F    
Average Humidity 84    
Maximum Humidity 92    
Minimum Humidity 73    
Precipitation  
Precipitation 0.00 in - - ()
Sea Level Pressure  
Sea Level Pressure 29.94 in    
Wind  
Wind Speed 1 mph (SW)    
Max Wind Speed 9 mph    
Max Gust Speed -    
Visibility 9 miles    
Events Snow    
Averages and records for this station are not official NWS values.
T = Trace of Precipitation, MM = Missing Value Source: NWS Daily Summary

Daily Weather History Graph

Daily Weather History Graph

Search for Another Location

Airport or City:

Trip Planner

Search our weather history database for the weather conditions in past years. The results will help you decide how hot, cold, wet, or windy it might be!

Date:

Astronomy

Dec. 20, 2013 Rise Set
Actual Time 8:05 AM CST 4:26 PM CST
Civil Twilight 7:28 AM CST 5:02 PM CST
Nautical Twilight 6:48 AM CST 5:42 PM CST
Astronomical Twilight 6:10 AM CST 6:20 PM CST
Moon 8:01 PM CST (12/20) 9:47 AM CST (12/20)
Length of Visible Light 9h 34m
Length of Day
8h 20m
Waning Gibbous, 90% of the Moon is Illuminated
Dec 20
Waning Gibbous
Dec 25
Last Quarter
Jan 1
New
Jan 7
First Quarter
Jan 15
Full

Hourly Weather History & Observations

Time (CST) Temp. Windchill Dew Point Humidity Pressure Visibility Wind Dir Wind Speed Gust Speed Precip Events Conditions
12:15 AM -7.6 °F - -11.2 °F 84% 30.13 in 7.0 mi Calm Calm - N/A Snow Light Snow
12:35 AM -9.4 °F - -14.8 °F 77% 30.12 in 10.0 mi Calm Calm - N/A Snow Light Snow
12:54 AM -11.2 °F - -14.8 °F 84% 30.11 in 10.0 mi Calm Calm - N/A Snow Light Snow
1:15 AM -11.2 °F - -14.8 °F 84% 30.11 in 10.0 mi Calm Calm - N/A   Clear
1:35 AM -11.2 °F - -16.6 °F 77% 30.10 in 10.0 mi Calm Calm - N/A   Clear
1:55 AM -14.8 °F - -18.4 °F 84% 30.09 in 10.0 mi Calm Calm - N/A   Clear
2:15 AM -14.8 °F - -18.4 °F 84% 30.08 in 10.0 mi Calm Calm - N/A   Clear
2:35 AM -14.8 °F - -18.4 °F 84% 30.07 in 10.0 mi Calm Calm - N/A   Clear
2:55 AM -14.8 °F - -18.4 °F 84% 30.07 in 10.0 mi Calm Calm - N/A   Clear
3:15 AM -16.6 °F - -20.2 °F 84% 30.07 in 10.0 mi Calm Calm - N/A   Clear
3:35 AM -16.6 °F - -20.2 °F 84% 30.06 in 10.0 mi Calm Calm - N/A   Clear
3:55 AM -16.6 °F - -20.2 °F 84% 30.06 in 10.0 mi Calm Calm - N/A   Clear
4:15 AM -16.6 °F - -20.2 °F 84% 30.05 in 7.0 mi Calm Calm - N/A   Clear
4:35 AM -16.6 °F - -20.2 °F 84% 30.05 in 10.0 mi Calm Calm - N/A   Clear
4:55 AM -14.8 °F - -20.2 °F 77% 30.04 in 10.0 mi Calm Calm - N/A   Clear
5:15 AM -16.6 °F - -20.2 °F 84% 30.03 in 10.0 mi Calm Calm - N/A   Clear
5:35 AM -16.6 °F - -20.2 °F 84% 30.02 in 10.0 mi Calm Calm - N/A   Clear
5:54 AM -14.8 °F - -18.4 °F 84% 30.01 in 7.0 mi Calm Calm - N/A   Clear
6:15 AM -14.8 °F - -18.4 °F 84% 30.01 in 7.0 mi Calm Calm - N/A   Clear
6:34 AM -13.0 °F -22.7 °F -16.6 °F 84% 30.01 in 10.0 mi South 3.5 mph - N/A   Clear
6:55 AM -11.2 °F -20.6 °F -14.8 °F 84% 30.00 in 10.0 mi South 3.5 mph - N/A   Clear
7:15 AM -7.6 °F - -11.2 °F 84% 29.99 in 10.0 mi Calm Calm - N/A   Clear
7:34 AM -9.4 °F - -14.8 °F 77% 29.98 in 10.0 mi Calm Calm - N/A   Clear
7:55 AM -7.6 °F -18.8 °F -9.4 °F 92% 29.98 in 10.0 mi South 4.6 mph - N/A   Clear
8:15 AM -5.8 °F - -9.4 °F 84% 29.97 in 10.0 mi Calm Calm - N/A   Clear
8:34 AM -7.6 °F - -11.2 °F 84% 29.98 in 5.0 mi Calm Calm - N/A   Clear
8:55 AM -7.6 °F - -11.2 °F 84% 29.98 in 7.0 mi Calm Calm - N/A   Clear
9:15 AM -5.8 °F - -9.4 °F 84% 29.98 in 10.0 mi Calm Calm - N/A   Clear
9:34 AM -4.0 °F - -7.6 °F 85% 29.98 in 10.0 mi Calm Calm - N/A   Clear
9:55 AM -0.4 °F -12.0 °F -4.0 °F 85% 29.98 in 10.0 mi SW 5.8 mph - N/A   Clear
10:15 AM 3.2 °F -11.3 °F -0.4 °F 85% 29.98 in 10.0 mi SSW 9.2 mph - N/A   Clear
10:34 AM 5.0 °F -6.9 °F 1.4 °F 85% 29.97 in 10.0 mi SSW 6.9 mph - N/A   Clear
10:55 AM 6.8 °F -6.9 °F 1.4 °F 79% 29.97 in 10.0 mi SSW 9.2 mph - N/A   Clear
11:15 AM 6.8 °F -4.8 °F 1.4 °F 79% 29.96 in 10.0 mi SW 6.9 mph - N/A   Clear
11:34 AM 6.8 °F -5.9 °F 1.4 °F 79% 29.95 in 10.0 mi SW 8.1 mph - N/A   Clear
11:55 AM 5.0 °F -5.6 °F -0.4 °F 78% 29.94 in 10.0 mi SW 5.8 mph - N/A   Clear
12:15 PM 5.0 °F -5.6 °F -0.4 °F 78% 29.94 in 10.0 mi SW 5.8 mph - N/A   Mostly Cloudy
12:34 PM 6.8 °F -2.0 °F 1.4 °F 79% 29.92 in 10.0 mi SW 4.6 mph - N/A Snow Light Snow
12:55 PM 8.6 °F 0.1 °F 1.4 °F 73% 29.91 in 10.0 mi SW 4.6 mph - N/A Snow Light Snow
1:15 PM 8.6 °F -1.3 °F 3.2 °F 79% 29.90 in 10.0 mi WSW 5.8 mph - N/A Snow Light Snow
1:34 PM 8.6 °F -2.6 °F 3.2 °F 79% 29.90 in 10.0 mi WSW 6.9 mph - N/A Snow Light Snow
1:55 PM 8.6 °F 2.0 °F 3.2 °F 79% 29.89 in 10.0 mi West 3.5 mph - N/A Snow Light Snow
2:15 PM 8.6 °F 0.1 °F 3.2 °F 79% 29.89 in 10.0 mi WSW 4.6 mph - N/A Snow Light Snow
2:34 PM 8.6 °F 2.0 °F 5.0 °F 85% 29.88 in 10.0 mi WSW 3.5 mph - N/A Snow Light Snow
2:55 PM 8.6 °F - 5.0 °F 85% 29.88 in 10.0 mi Calm Calm - N/A Snow Light Snow
3:15 PM 8.6 °F - 5.0 °F 85% 29.88 in 10.0 mi Calm Calm - N/A Snow Light Snow
3:34 PM 8.6 °F 2.0 °F 3.2 °F 79% 29.87 in 7.0 mi West 3.5 mph - N/A Snow Light Snow
3:55 PM 8.6 °F - 3.2 °F 79% 29.87 in 10.0 mi Calm Calm - N/A Snow Light Snow
4:14 PM 8.6 °F - 3.2 °F 79% 29.87 in 10.0 mi Calm Calm - N/A Snow Light Snow
4:34 PM 8.6 °F - 5.0 °F 85% 29.86 in 10.0 mi Calm Calm - N/A Snow Light Snow
4:55 PM 8.6 °F 2.0 °F 5.0 °F 85% 29.86 in 10.0 mi SW 3.5 mph - N/A Snow Light Snow
5:15 PM 8.6 °F - 5.0 °F 85% 29.85 in 10.0 mi Calm Calm - N/A Snow Light Snow
5:34 PM 8.6 °F - 5.0 °F 85% 29.85 in 5.0 mi Calm Calm - N/A Snow Light Snow
5:55 PM 8.6 °F - 5.0 °F 85% 29.84 in 7.0 mi Calm Calm - N/A Snow Light Snow
6:15 PM 6.8 °F - 3.2 °F 85% 29.83 in 10.0 mi Calm Calm - N/A Snow Light Snow
6:34 PM 6.8 °F - 3.2 °F 85% 29.83 in 10.0 mi Calm Calm - N/A   Clear
6:55 PM 6.8 °F - 3.2 °F 85% 29.83 in 10.0 mi Calm Calm - N/A   Clear
7:15 PM 3.2 °F - 1.4 °F 92% 29.83 in 10.0 mi Calm Calm - N/A   Clear
7:34 PM 3.2 °F - 1.4 °F 92% 29.82 in 10.0 mi Calm Calm - N/A   Clear
7:55 PM 3.2 °F - 1.4 °F 92% 29.82 in 10.0 mi Calm Calm - N/A   Clear
8:15 PM 3.2 °F - 1.4 °F 92% 29.82 in 10.0 mi Calm Calm - N/A   Clear
8:34 PM 1.4 °F - -0.4 °F 92% 29.83 in 10.0 mi Calm Calm - N/A   Scattered Clouds
8:55 PM 3.2 °F - -0.4 °F 85% 29.82 in 10.0 mi Calm Calm - N/A   Scattered Clouds
9:14 PM 1.4 °F - -0.4 °F 92% 29.82 in 10.0 mi Calm Calm - N/A   Scattered Clouds
9:35 PM 3.2 °F - 1.4 °F 92% 29.82 in 7.0 mi Calm Calm - N/A   Clear
9:55 PM 3.2 °F - -0.4 °F 85% 29.83 in 10.0 mi Calm Calm - N/A   Clear
10:14 PM 3.2 °F - -0.4 °F 85% 29.82 in 10.0 mi Calm Calm - N/A   Mostly Cloudy
10:35 PM 3.2 °F - -0.4 °F 85% 29.81 in 10.0 mi Calm Calm - N/A   Overcast
10:55 PM 3.2 °F - -0.4 °F 85% 29.82 in 10.0 mi Calm Calm - N/A Snow Light Snow
11:14 PM 3.2 °F - -0.4 °F 85% 29.82 in 10.0 mi Calm Calm - N/A   Overcast
11:35 PM 3.2 °F - 1.4 °F 92% 29.83 in 3.0 mi Calm Calm - N/A Snow Light Snow
11:55 PM 6.8 °F - 3.2 °F 85% 29.83 in 3.0 mi Calm Calm - N/A Snow Light Snow